FREGAT DEB (TANK), 43089

Orbit data source: Space-Track

FREGAT DEB (TANK), 43089 is space debris in LEO originally from a launch on Tue, 26 Dec 2017 UTC launched from the Tyuratam Missile And Space Complex (TTMTR). Debris objects in space refer to the collection of defunct objects orbiting the Earth. Examples of debris include non-operational satellites, rocket bodies, and fragments generated from explosions, collisions, or faulty payload assembly.

Loading next visibility...
Identifier
43089, 2017-086C
Orbit
LEO
Country
Flag of CISCIS
Related business
Manufacturer
Lavochkin
Mission
Spacecraft
Bus & Motor
FREGAT SBB, Unknown motor
Mass
360 kg wet, 360 kg dry
Launch date (UTC)
2017-12-26 (8 years ago)
Launch vehicle
Unknown
Launch site
Tyuratam Missile And Space Complex (TTMTR)
Object type
Payload
Rocket body
Debris
Shape & HBR
Torus, 1.9 m
Radar Cross Section
6.703 m², Large (>1 m²)

Expand to show TLE details & history
Last TLE update: 2 days ago

TLE from 2 days ago
0 FREGAT DEB (TANK)
1 43089U 17086C   26171.43018514  .00050376  53509-5  89421-3 0  9994
2 43089  50.3607 272.1358 1286792 248.7933  97.0935 13.03776569361039
Epoch: 2026-06-20T10:19Z
TLE epoch observation values (Epoch: 2026-06-20T10:19:27.996Z)
Latitude
-0.00001°
Longitude
-151.37578°
Altitude
1,489.18 km
Speed
7.007 km/s
True Right ascension
18h 08m 32s
True Declination
0° 00' 00"
Sunlit
Object was in full shadow at epoch
Visualization orbit readout
Latitude
Unknown
Longitude
Unknown
Altitude
Unknown
Speed
Unknown
Apparent Right ascension
Unknown
Apparent Declination
Unknown
Sunlit
N/A
Visualization observer readout
Local Sidereal Time
21:38:09
Azimuth
Unknown
Elevation
Unknown
Doppler factor
Unknown
Orbital elements
Apogee altitude
2,229.312 km
Perigee altitude
266.664 km
Semi-major axis
7,626.125 km
Eccentricity
0.12868
Inclination
50.3607°
RAAN
272.1358°
Arg. of periapsis
248.7933°
True anomaly
111.29464°
Mean anomaly
97.0935°
Eccentric anomaly
104.23975°
Mean motion
3.25902 °/min
Orbital period
110.46 mins
BSTAR
0.00089421
Loading maneuver chart data...
Computing Atmospheric mass density...
Loading historical data...
Loading historical data...
Loading historical data...
Loading historical data...
Loading historical data...
Loading historical data...
Loading historical data...

Documentation

Showing up to 5 results
|